Wind_Speed
15 14 19 21 16 13 11 19 16 21 18 12 9 17 26 27 30 27 29 31 33 34 35 35 36 39 39 40 42 43 44 44 43 41 36 32 26 23 21 21 18 16 16
14 15 10 9 10 13 9 5 5 6 14 21 20 15 22 20 21 23 26 26 28 29 29 30 33 35 35 35 37 38 39 40 40 40 40 39 35 29 27 24 21 19 16
13 12 8 4 8 13 14 8 12 10 8 17 21 17 15 17 16 21 22 20 23 25 25 25 27 30 32 33 33 34 34 34 34 34 35 36 36 34 32 31 30 28 25
15 13 8 6 10 7 6 15 10 18 15 13 14 14 12 7 10 6 19 18 16 21 22 22 21 23 24 26 28 30 30 28 28 28 29 30 30 31 30 29 29 27 26
19 19 10 9 9 7 2 6 14 10 9 10 12 12 13 9 5 11 17 16 19 20 14 19 21 20 20 21 24 25 24 24 23 23 22 22 23 23 24 24 24 23 24
19 21 17 11 13 10 7 6 5 9 10 11 11 12 9 6 2 4 16 9 18 20 18 16 18 19 19 17 17 20 21 21 22 20 19 18 16 16 16 17 18 18 18
22 24 22 16 15 14 13 6 6 6 7 9 9 8 5 5 9 6 12 12 17 16 15 13 14 17 16 15 15 16 17 17 17 18 17 13 12 12 11 11 11 11 11
23 25 25 22 17 16 16 8 7 7 6 3 4 6 1 4 7 9 10 13 21 20 19 18 15 15 13 15 14 14 13 15 15 12 13 13 10 9 8 8 8 8 6
25 26 27 25 20 19 19 15 11 11 11 10 7 7 5 8 12 9 10 16 20 18 17 18 19 15 17 18 15 15 15 17 18 16 12 8 8 7 7 8 7 7 7
27 26 28 26 23 21 20 19 19 17 17 13 10 8 10 12 12 13 15 19 20 15 19 18 19 18 19 19 14 14 14 17 18 18 18 13 8 8 10 11 10 10 10
30 26 29 29 27 25 21 19 20 21 20 18 14 12 12 14 16 14 12 17 20 21 23 23 22 22 22 18 13 12 13 17 14 15 15 11 11 8 11 14 16 16 16
30 27 26 29 28 26 24 23 20 24 23 22 15 11 13 15 15 13 14 20 20 23 24 24 27 27 23 19 12 12 13 12 10 12 14 10 3 4 7 12 16 17 19
29 26 22 23 24 22 18 22 25 24 28 21 19 19 15 14 13 17 20 22 21 24 27 26 28 28 21 16 9 11 11 9 10 10 9 7 4 5 8 12 16 18 20
33 29 25 21 22 22 20 17 23 25 29 26 28 22 21 19 17 17 21 22 22 25 32 27 31 29 15 11 10 17 14 11 13 12 10 7 7 7 9 12 17 20 21
35 36 33 30 27 26 24 24 26 25 29 31 33 28 25 22 20 22 23 20 24 26 30 24 27 20 11 10 10 13 14 13 17 16 15 13 15 16 16 17 18 20 21
37 39 37 38 37 32 29 30 32 31 31 33 33 28 28 26 25 24 25 26 25 29 29 22 21 16 13 15 15 16 14 17 16 18 17 13 12 16 19 21 21 23 24
38 41 38 37 37 38 37 34 32 32 35 35 36 29 31 28 30 31 30 29 29 30 28 21 20 15 10 18 20 16 16 15 14 15 18 17 12 14 20 19 17 17 30
39 38 39 41 42 41 42 39 40 41 36 39 42 38 35 35 35 33 33 32 34 28 29 25 21 18 13 12 15 17 18 24 19 17 20 23 19 21 20 22 21 22 20
46 46 47 45 43 45 45 44 42 44 40 42 42 40 39 37 37 38 38 35 36 35 30 26 25 23 23 18 18 20 22 23 23 22 22 25 27 25 23 23 23 23 25
47 46 45 47 50 49 46 46 46 47 45 43 44 44 46 43 41 43 36 33 32 29 25 23 26 24 25 25 24 24 23 23 21 25 29 27 28 27 25 24 27 27 26
44 50 50 46 42 41 43 43 40 44 49 47 44 41 41 41 38 36 34 29 27 32 27 26 26 29 30 29 29 28 28 29 29 31 32 31 33 32 31 31 30 32 33
38 41 44 50 50 47 41 42 39 38 35 37 41 42 42 38 37 38 28 33 37 32 30 29 28 29 32 31 32 33 35 38 39 36 38 36 38 38 39 38 37 37 40
37 42 42 41 43 47 48 47 47 44 39 36 36 37 37 39 39 40 42 36 34 34 31 31 30 31 32 32 34 35 36 40 41 37 37 41 37 40 40 42 44 46 47
38 40 41 41 40 39 43 47 51 48 46 42 38 37 38 37 37 36 35 35 37 37 35 34 35 35 38 38 37 37 38 37 33 31 31 32 32 31 32 35 39 44 47
39 38 39 39 39 39 38 41 45 49 49 44 42 41 40 39 38 39 42 43 44 45 46 45 44 43 41 41 41 37 36 27 20 22 24 25 25 26 25 39 33 35 37
39 40 38 36 34 31 28 32 36 42 45 45 44 43 42 43 45 44 43 41 42 42 45 46 47 45 40 37 38 37 30 21 22 23 27 29 29 33 38 37 39 41 38
Wind_Direction
140 124 105 114 89 71 53 87 63 64 87 90 90 55 49 51 54 54 48 48 50 47 46 51 58 60 59 60 63 63 62 60 60 61 61 61 64 64 65 62 64 72 76
161 152 133 102 119 102 88 68 99 51 72 87 83 50 44 27 44 44 51 47 47 43 43 46 50 54 57 58 59 60 61 61 60 60 61 62 64 64 63 64 64 65 72
190 169 170 124 123 106 102 87 86 92 96 94 86 82 62 34 21 17 39 41 39 39 39 41 44 48 49 51 53 57 58 58 58 60 61 63 63 64 65 66 68 69 70
198 190 192 184 152 156 143 136 122 127 130 113 112 107 81 71 20 4 23 33 41 28 35 41 42 44 43 46 47 48 51 53 55 56 58 62 64 65 64 64 67 69 72
216 213 212 217 200 183 193 131 147 96 106 119 120 113 94 116 62 31 21 41 29 29 32 32 32 32 34 40 40 39 41 43 46 50 55 58 60 65 66 66 67 70 72
226 228 221 217 222 226 218 184 178 133 130 124 124 107 124 83 55 295 15 63 2 22 23 23 29 21 19 23 28 30 32 31 28 33 39 44 49 56 62 68 70 68 71
227 225 226 216 222 224 234 216 189 196 162 143 116 114 120 123 33 30 13 7 356 356 358 7 14 8 6 12 9 15 22 20 22 23 22 26 32 37 36 41 55 67 70
217 217 219 218 224 226 235 226 215 212 198 180 182 185 305 266 326 330 326 326 323 326 320 326 339 343 335 337 344 348 6 6 1 359 4 10 11 13 13 14 16 15 20
217 212 211 217 219 213 224 234 220 210 207 198 186 203 250 254 278 317 308 302 314 325 321 325 323 329 313 313 322 327 343 344 342 334 325 336 343 349 344 341 339 339 335
222 215 210 213 218 218 220 223 227 213 211 216 215 242 262 275 294 309 317 313 323 323 320 320 318 320 310 306 312 318 330 334 331 321 311 294 290 314 328 331 318 304 303
234 219 209 213 216 224 226 227 218 215 217 225 228 246 269 285 290 303 321 334 326 319 317 312 306 304 299 303 291 293 324 338 344 358 338 292 258 278 299 303 301 299 291
236 234 220 220 218 224 236 235 228 215 222 228 229 253 274 279 285 287 310 319 325 328 322 314 311 305 289 279 276 287 314 338 344 356 7 18 22 328 335 334 327 315 296
234 229 219 220 221 225 236 236 236 228 225 236 238 260 286 277 286 294 305 312 318 322 324 317 318 313 289 264 292 304 306 317 307 323 344 355 25 9 350 343 337 332 318
233 229 223 221 230 235 246 242 233 235 229 237 241 261 274 268 281 302 315 322 319 325 323 312 323 320 274 248 226 277 290 295 292 288 297 300 303 317 321 335 336 328 328
236 230 231 230 240 242 247 245 242 243 229 236 242 255 264 271 278 293 303 309 312 319 320 307 321 320 256 222 235 257 266 252 271 270 283 301 306 310 325 325 333 330 327
240 241 236 239 244 243 244 255 248 246 243 245 250 265 267 276 275 290 294 297 304 311 313 298 311 318 260 232 244 257 257 271 282 259 274 290 301 306 316 309 317 330 334
243 240 245 247 248 249 251 255 248 254 249 246 249 256 265 270 274 284 289 293 295 303 305 291 300 308 292 258 260 246 253 258 270 275 270 269 278 298 308 306 306 336 322
247 250 253 255 255 251 255 257 253 258 257 249 255 259 262 269 275 279 286 285 292 293 296 282 284 280 279 262 265 256 269 268 278 286 275 263 287 292 295 310 300 302 302
255 247 242 243 251 256 257 258 259 258 259 257 256 254 256 268 271 275 280 280 288 289 288 275 277 284 280 269 266 262 269 276 269 280 277 282 287 296 290 294 297 299 294
249 255 255 253 252 255 258 260 260 259 260 263 264 261 263 264 266 273 275 277 283 279 284 286 269 276 280 288 289 287 285 283 279 285 286 281 282 290 288 288 291 298 291
247 253 255 256 255 257 256 258 260 259 258 259 261 261 266 266 269 273 274 271 284 289 281 282 278 266 270 278 287 289 291 290 291 293 289 286 285 284 284 287 286 283 290
253 255 256 253 252 254 255 252 259 263 258 261 259 257 259 262 266 273 280 276 285 283 278 276 277 272 271 279 283 287 289 289 289 289 287 285 285 283 283 281 281 281 283
257 255 255 257 256 253 250 251 252 255 258 259 260 261 261 265 271 274 277 278 277 274 271 270 273 275 276 277 282 285 290 293 292 293 290 291 294 292 292 290 287 283 279
256 258 260 259 257 259 257 255 255 259 262 262 258 259 263 268 271 272 268 264 268 269 271 270 271 273 276 280 282 286 293 293 293 296 299 300 301 303 304 300 292 285 282
258 257 257 259 259 260 262 264 265 264 264 263 262 261 261 263 267 271 272 274 277 276 271 267 266 267 272 277 283 287 294 290 283 283 291 305 303 311 318 324 318 304 297
253 257 255 256 258 262 272 271 272 267 266 266 264 263 267 269 270 267 270 273 276 276 275 274 273 272 272 275 281 285 278 266 267 280 301 305 309 303 306 322 331 326 308
Height
11008 11009 11008 11008 11009 11008 11005 11003 11002 11000 10997 10993 10993 10995 10992 10990 10988 10986 10986 10983 10981 10980 10978 10974 10969 10965 10961 10958 10954 10949 10947 10946 10945 10943 10942 10940 10941 10942 10941 10939 10937 10937 10937
11010 11010 11009 11010 11010 11010 11010 11007 11004 11003 11003 10999 10994 10998 10997 10995 10993 10991 10988 10988 10987 10986 10984 10980 10975 10971 10967 10965 10961 10956 10953 10952 10953 10952 10950 10948 10947 10946 10946 10945 10944 10943 10942
11012 11011 11009 11010 11010 11011 11012 11009 11006 11006 11005 11002 11000 11001 11000 10998 10997 10996 10991 10990 10989 10988 10988 10986 10982 10978 10975 10972 10968 10963 10961 10961 10961 10960 10958 10956 10955 10954 10953 10952 10950 10949 10948
11012 11011 11009 11008 11010 11011 11012 11013 11011 11008 11006 11005 11003 11001 11002 11002 10999 10998 10996 10994 10993 10993 10991 10989 10988 10984 10981 10977 10973 10970 10968 10969 10968 10967 10965 10963 10961 10960 10960 10959 10958 10956 10955
11011 11010 11011 11010 11009 11011 11011 11011 11011 11009 11009 11005 11005 11004 11004 11004 11003 11002 10998 10997 10998 10994 10992 10992 10991 10988 10986 10982 10979 10977 10975 10975 10974 10972 10971 10970 10968 10967 10967 10966 10965 10963 10962
11010 11008 11010 11010 11009 11009 11010 11012 11012 11010 11011 11008 11005 11005 11004 11003 11003 11001 11001 10999 10997 10996 10995 10993 10992 10992 10989 10986 10983 10982 10980 10979 10978 10977 10976 10975 10973 10973 10972 10970 10969 10968 10967
11006 11006 11005 11007 11007 11008 11009 11009 11009 11010 11010 11008 11005 11002 11001 11004 11004 11002 11001 11000 10999 10997 10996 10995 10993 10993 10991 10990 10988 10986 10983 10983 10982 10981 10979 10978 10977 10976 10975 10974 10973 10971 10970
11002 11003 11003 11004 11005 11005 11006 11007 11008 11008 11008 11007 11005 11003 11003 11004 11004 11002 11002 11000 11000 10998 10995 10994 10992 10992 10992 10991 10989 10987 10984 10985 10984 10983 10981 10979 10979 10978 10976 10975 10974 10973 10972
10998 11001 11002 11002 11003 11004 11004 11006 11007 11006 11007 11008 11006 11006 11005 11005 11005 11003 11004 11002 10999 10995 10993 10993 10992 10991 10991 10990 10988 10986 10984 10983 10984 10982 10980 10979 10978 10978 10977 10976 10974 10973 10973
10994 10998 10999 11000 11002 11003 11004 11006 11006 11004 11007 11007 11006 11007 11006 11005 11004 11004 11002 10999 10996 10995 10994 10993 10991 10990 10990 10988 10987 10986 10984 10983 10981 10979 10978 10977 10977 10977 10977 10976 10975 10973 10972
10989 10994 10997 10999 11000 11001 11002 11003 11004 11005 11005 11006 11005 11006 11006 11006 11004 11002 11000 10998 10994 10992 10992 10990 10990 10986 10985 10985 10984 10983 10982 10982 10979 10977 10973 10971 10972 10975 10975 10974 10973 10972 10971
10986 10989 10993 10995 10997 10998 10999 11000 11001 11003 11003 11003 11004 11005 11004 11003 11002 11001 11001 10998 10995 10989 10988 10987 10984 10984 10982 10980 10979 10979 10980 10979 10979 10977 10974 10970 10969 10972 10972 10972 10971 10970 10968
10985 10987 10989 10991 10994 10996 10996 10998 10998 10999 10999 11001 11001 11002 11001 11001 10999 10999 10997 10994 10991 10987 10984 10983 10980 10975 10973 10974 10975 10977 10978 10976 10976 10976 10974 10972 10971 10971 10971 10970 10968 10967 10964
10983 10985 10987 10988 10989 10991 10992 10993 10994 10995 10996 10996 10997 10997 10997 10998 10997 10996 10993 10989 10987 10984 10981 10978 10973 10968 10966 10970 10972 10973 10974 10973 10973 10973 10972 10970 10969 10968 10967 10966 10965 10963 10961
10978 10981 10983 10984 10986 10987 10988 10990 10991 10991 10992 10994 10994 10994 10994 10993 10992 10991 10990 10988 10986 10983 10981 10976 10972 10967 10966 10969 10969 10969 10970 10970 10970 10971 10971 10969 10967 10967 10966 10964 10962 10960 10958
10973 10976 10978 10979 10982 10983 10985 10986 10987 10987 10989 10989 10990 10991 10990 10988 10986 10986 10986 10985 10984 10981 10978 10975 10973 10969 10967 10968 10969 10968 10968 10967 10967 10966 10967 10966 10965 10964 10963 10962 10960 10957 10955
10966 10970 10972 10974 10976 10978 10979 10981 10981 10981 10983 10983 10984 10984 10983 10982 10981 10981 10981 10980 10979 10977 10974 10973 10971 10970 10968 10967 10967 10967 10966 10966 10964 10964 10964 10963 10962 10960 10960 10958 10956 10952 10952
10959 10962 10964 10966 10968 10971 10973 10974 10975 10975 10976 10975 10976 10977 10976 10976 10975 10975 10975 10974 10972 10972 10969 10968 10968 10967 10966 10966 10965 10965 10964 10963 10962 10961 10961 10958 10957 10956 10954 10953 10951 10946 10945
10951 10954 10956 10959 10960 10961 10964 10966 10967 10966 10966 10966 10967 10968 10968 10969 10968 10967 10968 10968 10966 10966 10966 10963 10963 10963 10962 10962 10961 10961 10960 10958 10958 10957 10955 10954 10952 10951 10948 10946 10945 10941 10938
10939 10944 10947 10950 10952 10952 10954 10955 10956 10957 10958 10958 10958 10960 10960 10960 10960 10960 10961 10960 10959 10958 10959 10959 10959 10959 10958 10956 10955 10954 10953 10952 10952 10951 10948 10947 10946 10944 10943 10940 10937 10935 10933
10924 10933 10936 10939 10941 10942 10943 10946 10947 10947 10948 10949 10950 10952 10953 10953 10953 10952 10953 10953 10952 10952 10952 10952 10952 10953 10953 10951 10950 10948 10947 10946 10946 10944 10940 10939 10936 10936 10935 10932 10930 10927 10925
10912 10920 10924 10928 10931 10933 10934 10935 10936 10939 10940 10941 10942 10943 10944 10945 10946 10946 10946 10946 10945 10944 10944 10942 10944 10944 10945 10944 10943 10943 10941 10939 10937 10937 10933 10933 10929 10926 10925 10923 10922 10919 10917
10901 10908 10913 10916 10919 10922 10925 10927 10928 10929 10930 10931 10932 10934 10935 10936 10936 10938 10938 10938 10937 10935 10935 10934 10935 10936 10937 10937 10937 10936 10934 10932 10929 10927 10924 10921 10919 10916 10914 10913 10911 10909 10906
10891 10896 10899 10904 10908 10910 10913 10916 10918 10919 10921 10922 10922 10923 10925 10925 10926 10926 10926 10925 10924 10924 10925 10925 10924 10926 10926 10927 10927 10926 10926 10924 10921 10918 10915 10913 10909 10905 10902 10900 10898 10895 10892
10882 10886 10888 10893 10897 10900 10903 10907 10908 10910 10912 10913 10913 10912 10911 10913 10914 10915 10915 10916 10917 10916 10914 10912 10911 10912 10914 10915 10916 10916 10916 10915 10913 10911 10909 10906 10902 10897 10893 10890 10887 10883 10878
10873 10878 10879 10881 10886 10892 10896 10898 10898 10898 10898 10899 10899 10899 10900 10901 10902 10902 10902 10902 10903 10904 10903 10902 10901 10901 10902 10903 10905 10906 10906 10907 10905 10904 10902 10899 10895 10890 10885 10882 10875 10870 10865